When you browse on this site, cookies collect data to enhance your experience and personalize the content and advertising you see.
Visit our Privacy Policy to learn more. By continuing to use the site, you agree to this use of cookies and data.
  • In Austria
  • List of Countries
  • For 7 days
  • Water Temperature
  • Satellite Maps
  • Weather Map
  • News
  • Weather Widgets
  • user-avatar
    Login

    Hourly Weather Igls

    Today, 20 March, Wednesday

    Time Temperature Precipitation Wind Pressure Humidity
    00:00 -3°C° 0 mm 1 mps 691 mmHg 89%
    01:00 -3°C° 0 mm 1 mps 691 mmHg 90%
    02:00 -3°C° 0 mm 1 mps 691 mmHg 89%
    03:00 -4°C° 0 mm 1 mps 692 mmHg 88%
    04:00 -4°C° 0 mm 1 mps 692 mmHg 88%
    05:00 -4°C° 0 mm 1 mps 692 mmHg 85%
    06:00 -4°C° 0 mm 1 mps 692 mmHg 81%
    07:00 -2°C° 0 mm 1 mps 692 mmHg 78%
    08:00 0°C° 0 mm 1 mps 693 mmHg 72%
    09:00 +2°C° 0 mm 1 mps 693 mmHg 66%
    10:00 +4°C° 0 mm 1 mps 693 mmHg 60%
    11:00 +5°C° 0 mm 1 mps 693 mmHg 60%
    12:00 +5°C° 0 mm 2 mps 693 mmHg 61%
    13:00 +5°C° 0 mm 2 mps 693 mmHg 61%
    14:00 +5°C° 0 mm 2 mps 693 mmHg 63%
    15:00 +5°C° 0 mm 2 mps 693 mmHg 64%
    16:00 +5°C° 0 mm 2 mps 692 mmHg 66%
    17:00 +4°C° 0 mm 1 mps 692 mmHg 72%
    18:00 +2°C° 0 mm 1 mps 692 mmHg 79%
    19:00 -1°C° 0 mm 1 mps 692 mmHg 86%
    20:00 -1°C° 0 mm 1 mps 693 mmHg 83%
    21:00 -1°C° 0 mm 1 mps 693 mmHg 80%
    22:00 -2°C° 0 mm 1 mps 694 mmHg 76%
    23:00 -2°C° 0 mm 1 mps 694 mmHg 73%

    Tomorrow, 21 March, Thursday

    Time Temperature Precipitation Wind Pressure Humidity
    00:00 -2°C° 0 mm 1 mps 694 mmHg 69%
    01:00 -2°C° 0 mm 1 mps 694 mmHg 65%
    02:00 -2°C° 0 mm 1 mps 694 mmHg 63%
    03:00 -2°C° 0 mm 1 mps 693 mmHg 60%
    04:00 -1°C° 0 mm 1 mps 693 mmHg 57%
    05:00 -1°C° 0 mm 1 mps 693 mmHg 55%
    06:00 -2°C° 0 mm 2 mps 694 mmHg 53%
    07:00 -2°C° 0 mm 2 mps 694 mmHg 52%
    08:00 +3°C° 0 mm 1 mps 694 mmHg 53%
    09:00 +7°C° 0 mm 1 mps 694 mmHg 54%
    10:00 +10°C° 0 mm 1 mps 694 mmHg 55%
    11:00 +11°C° 0 mm 1 mps 694 mmHg 57%
    12:00 +12°C° 0 mm 1 mps 694 mmHg 58%
    13:00 +13°C° 0 mm 1 mps 694 mmHg 59%
    14:00 +13°C° 0 mm 1 mps 693 mmHg 62%
    15:00 +13°C° 0 mm 1 mps 693 mmHg 65%
    16:00 +12°C° 0 mm 1 mps 693 mmHg 68%
    17:00 +10°C° 0 mm 1 mps 692 mmHg 68%
    18:00 +8°C° 0 mm 1 mps 692 mmHg 69%
    19:00 +5°C° 0 mm 1 mps 692 mmHg 69%
    20:00 +5°C° 0 mm 1 mps 692 mmHg 65%
    21:00 +3°C° 0 mm 2 mps 693 mmHg 61%
    22:00 +3°C° 0 mm 2 mps 693 mmHg 58%
    23:00 +2°C° 0 mm 2 mps 693 mmHg 55%

    Day after tomorrow, 22 March, Friday

    Time Temperature Precipitation Wind Pressure Humidity
    00:00 +2°C° 0 mm 2 mps 693 mmHg 53%
    01:00 +2°C° 0 mm 2 mps 693 mmHg 50%
    02:00 +2°C° 0 mm 2 mps 693 mmHg 50%
    03:00 +2°C° 0 mm 2 mps 692 mmHg 49%
    04:00 +2°C° 0 mm 2 mps 692 mmHg 48%
    05:00 +2°C° 0 mm 2 mps 692 mmHg 47%
    06:00 +3°C° 0 mm 2 mps 692 mmHg 47%
    07:00 +3°C° 0 mm 2 mps 692 mmHg 46%
    08:00 +6°C° 0 mm 2 mps 693 mmHg 50%
    09:00 +10°C° 0 mm 1 mps 693 mmHg 54%
    10:00 +13°C° 0 mm 1 mps 693 mmHg 58%
    11:00 +14°C° 0 mm 1 mps 693 mmHg 58%
    12:00 +14°C° 0 mm 0 mps 693 mmHg 57%
    13:00 +15°C° 0 mm 0 mps 693 mmHg 56%
    14:00 +15°C° 0 mm 0 mps 692 mmHg 58%
    15:00 +14°C° 0 mm 0 mps 692 mmHg 59%
    16:00 +15°C° 0 mm 1 mps 692 mmHg 61%
    17:00 +11°C° 0 mm 0 mps 691 mmHg 66%
    18:00 +9°C° 0 mm 0 mps 691 mmHg 71%
    19:00 +6°C° 0 mm 0 mps 691 mmHg 75%
    20:00 +7°C° 0 mm 1 mps 691 mmHg 73%
    21:00 +6°C° 0 mm 1 mps 692 mmHg 71%
    22:00 +5°C° 0 mm 2 mps 692 mmHg 69%
    23:00 +5°C° 0 mm 2 mps 692 mmHg 67%

    23 March, Saturday

    Time Temperature Precipitation Wind Pressure Humidity
    00:00 +6°C° 0 mm 1 mps 692 mmHg 65%
    01:00 +6°C° 0 mm 1 mps 692 mmHg 63%
    02:00 +5°C° 0 mm 1 mps 692 mmHg 62%
    03:00 +5°C° 0 mm 1 mps 692 mmHg 62%
    04:00 +5°C° 0 mm 1 mps 691 mmHg 62%
    05:00 +5°C° 0 mm 1 mps 691 mmHg 63%
    06:00 +5°C° 0 mm 1 mps 692 mmHg 64%
    07:00 +5°C° 0 mm 1 mps 692 mmHg 65%
    08:00 +8°C° 0 mm 1 mps 692 mmHg 62%
    09:00 +11°C° 0 mm 1 mps 692 mmHg 60%
    10:00 +13°C° 0 mm 0 mps 692 mmHg 57%
    11:00 +14°C° 0 mm 1 mps 692 mmHg 56%
    12:00 +15°C° 0 mm 1 mps 692 mmHg 55%
    13:00 +16°C° 0 mm 1 mps 692 mmHg 54%
    14:00 +15°C° 0 mm 1 mps 691 mmHg 56%
    15:00 +15°C° 0 mm 1 mps 691 mmHg 57%
    16:00 +15°C° 0 mm 1 mps 690 mmHg 59%
    17:00 +13°C° 0 mm 1 mps 690 mmHg 67%
    18:00 +9°C° 0 mm 0 mps 690 mmHg 74%
    19:00 +7°C° 0 mm 0 mps 689 mmHg 81%
    20:00 +8°C° 0 mm 1 mps 690 mmHg 79%
    21:00 +7°C° 0 mm 1 mps 690 mmHg 76%
    22:00 +6°C° 0 mm 2 mps 690 mmHg 73%
    23:00 +6°C° 0 mm 2 mps 690 mmHg 71%

    24 March, Sunday

    Time Temperature Precipitation Wind Pressure Humidity
    00:00 +6°C° 0 mm 2 mps 690 mmHg 69%
    01:00 +5°C° 0 mm 2 mps 690 mmHg 67%
    02:00 +5°C° 0 mm 2 mps 690 mmHg 67%
    03:00 +5°C° 0 mm 2 mps 689 mmHg 67%
    04:00 +5°C° 0 mm 2 mps 689 mmHg 66%
    05:00 +5°C° 0 mm 2 mps 689 mmHg 66%
    06:00 +5°C° 0 mm 2 mps 689 mmHg 66%
    07:00 +5°C° 0 mm 2 mps 689 mmHg 66%
    08:00 +8°C° 0 mm 2 mps 689 mmHg 61%
    09:00 +12°C° 0 mm 1 mps 689 mmHg 56%
    10:00 +15°C° 0 mm 1 mps 690 mmHg 51%
    11:00 +15°C° 0 mm 1 mps 689 mmHg 49%
    12:00 +16°C° 0 mm 1 mps 689 mmHg 47%
    13:00 +18°C° 0 mm 1 mps 689 mmHg 46%
    14:00 +16°C° 0 mm 1 mps 688 mmHg 50%
    15:00 +16°C° 0 mm 1 mps 688 mmHg 54%
    16:00 +15°C° 0 mm 2 mps 688 mmHg 58%
    17:00 +13°C° 0 mm 1 mps 687 mmHg 68%
    18:00 +11°C° 0 mm 1 mps 687 mmHg 79%
    19:00 +9°C° 0 mm 1 mps 687 mmHg 89%
    20:00 +9°C° 0 mm 1 mps 687 mmHg 90%
    21:00 +9°C° 0 mm 1 mps 688 mmHg 92%
    22:00 +9°C° 0 mm 1 mps 688 mmHg 93%
    23:00 +8°C° 0 mm 1 mps 688 mmHg 94%

    25 March, Monday

    Time Temperature Precipitation Wind Pressure Humidity
    00:00 +8°C° 0 mm 1 mps 688 mmHg 94%
    01:00 +7°C° 0 mm 1 mps 687 mmHg 95%
    02:00 +7°C° 0 mm 1 mps 687 mmHg 94%
    03:00 +6°C° 0 mm 1 mps 687 mmHg 94%
    04:00 +6°C° 0 mm 1 mps 687 mmHg 94%
    05:00 +6°C° 0 mm 1 mps 687 mmHg 92%
    06:00 +6°C° 0 mm 1 mps 687 mmHg 91%
    07:00 +6°C° 0 mm 1 mps 687 mmHg 89%
    08:00 +8°C° 0.1 mm 1 mps 687 mmHg 84%
    09:00 +9°C° 0.1 mm 1 mps 687 mmHg 80%
    10:00 +9°C° 0.1 mm 2 mps 687 mmHg 75%
    11:00 +9°C° 0.1 mm 2 mps 687 mmHg 75%
    12:00 +10°C° 0.1 mm 2 mps 686 mmHg 74%
    13:00 +10°C° 0.1 mm 2 mps 686 mmHg 74%
    14:00 +9°C° 0.2 mm 2 mps 686 mmHg 76%
    15:00 +9°C° 0.2 mm 2 mps 685 mmHg 79%
    16:00 +8°C° 0.2 mm 2 mps 685 mmHg 81%
    17:00 +7°C° 0.2 mm 2 mps 685 mmHg 85%
    18:00 +6°C° 0.2 mm 2 mps 685 mmHg 89%
    19:00 +5°C° 0.2 mm 2 mps 685 mmHg 93%
    20:00 +5°C° 0.2 mm 2 mps 685 mmHg 93%
    21:00 +4°C° 0.2 mm 2 mps 686 mmHg 93%
    22:00 +4°C° 0.2 mm 2 mps 686 mmHg 93%
    23:00 +3°C° 0.2 mm 2 mps 686 mmHg 93%
    Show more